Time,TemperatureF,DewpointF,PressureIn,WindDirection,WindDirectionDegrees,WindSpeedMPH,WindSpeedGustMPH,Humidity,HourlyPrecipIn,Conditions,Clouds,dailyrainin,SoftwareType,DateUTC
2013-04-30 00:00:00,66.3,60.0,29.69,SSE,153,0.0,1.0,80,0.00,,CLR,0.00,VWS V14.01,2013-04-30 05:00:00,
2013-04-30 00:04:00,66.3,60.3,29.69,SE,140,0.0,2.0,81,0.00,,CLR,0.00,VWS V14.01,2013-04-30 05:04:00,
2013-04-30 00:09:00,66.1,59.8,29.69,SE,140,0.0,2.0,80,0.00,,CLR,0.00,VWS V14.01,2013-04-30 05:09:00,
2013-04-30 00:14:00,66.0,59.7,29.69,SE,141,0.0,2.0,80,0.00,,CLR,0.00,VWS V14.01,2013-04-30 05:14:00,
2013-04-30 00:19:00,65.8,59.8,29.69,SE,144,0.0,2.0,81,0.00,,CLR,0.00,VWS V14.01,2013-04-30 05:19:00,
2013-04-30 00:24:00,65.7,59.7,29.69,SE,144,0.0,2.0,81,0.00,,CLR,0.00,VWS V14.01,2013-04-30 05:24:00,
2013-04-30 00:29:00,65.5,59.5,29.69,SSE,166,0.0,2.0,81,0.00,,CLR,0.00,VWS V14.01,2013-04-30 05:29:00,
2013-04-30 00:30:00,65.5,59.5,29.69,SSE,165,0.0,2.0,81,0.00,,CLR,0.00,VWS V14.01,2013-04-30 05:30:00,
2013-04-30 00:34:00,65.3,59.3,29.69,SSE,166,0.0,1.0,81,0.00,,CLR,0.00,VWS V14.01,2013-04-30 05:34:00,
2013-04-30 00:39:00,65.2,59.2,29.69,SSE,166,0.0,1.0,81,0.00,,CLR,0.00,VWS V14.01,2013-04-30 05:39:00,
2013-04-30 00:44:00,65.0,59.4,29.69,SSE,166,0.0,1.0,82,0.00,,CLR,0.00,VWS V14.01,2013-04-30 05:44:00,
2013-04-30 00:49:00,64.7,59.1,29.70,SSE,166,0.0,1.0,82,0.00,,CLR,0.00,VWS V14.01,2013-04-30 05:49:00,
2013-04-30 00:54:00,64.5,58.9,29.70,SSE,166,0.0,1.0,82,0.00,,CLR,0.00,VWS V14.01,2013-04-30 05:54:00,
2013-04-30 00:59:00,64.3,59.0,29.69,SSE,158,0.0,1.0,83,0.00,,CLR,0.00,VWS V14.01,2013-04-30 05:59:00,
2013-04-30 01:00:00,64.3,59.0,29.69,SSE,158,0.0,1.0,83,0.00,,CLR,0.00,VWS V14.01,2013-04-30 06:00:00,
2013-04-30 01:05:00,64.1,58.8,29.70,SSE,158,0.0,0.0,83,0.00,,CLR,0.00,VWS V14.01,2013-04-30 06:05:00,
2013-04-30 01:10:00,63.8,58.9,29.70,SSE,158,0.0,1.0,84,0.00,,CLR,0.00,VWS V14.01,2013-04-30 06:10:00,
2013-04-30 01:15:00,63.7,58.8,29.70,SSE,163,0.0,2.0,84,0.00,,CLR,0.00,VWS V14.01,2013-04-30 06:15:00,
2013-04-30 01:20:00,63.6,58.7,29.70,SSE,163,0.0,2.0,84,0.00,,CLR,0.00,VWS V14.01,2013-04-30 06:20:00,
2013-04-30 01:25:00,63.6,58.7,29.69,SSE,161,0.0,2.0,84,0.00,,CLR,0.00,VWS V14.01,2013-04-30 06:25:00,
2013-04-30 01:30:00,63.6,58.7,29.69,SSE,153,0.0,0.0,84,0.00,,CLR,0.00,VWS V14.01,2013-04-30 06:30:00,
2013-04-30 01:35:00,63.6,58.7,29.69,SSE,153,1.0,1.0,84,0.00,,CLR,0.00,VWS V14.01,2013-04-30 06:35:00,
2013-04-30 01:40:00,63.6,58.3,29.69,South,185,0.0,3.0,83,0.00,,CLR,0.00,VWS V14.01,2013-04-30 06:40:00,
2013-04-30 01:45:00,63.6,58.3,29.69,South,185,1.0,3.0,83,0.00,,CLR,0.00,VWS V14.01,2013-04-30 06:45:00,
2013-04-30 01:50:00,63.5,58.2,29.69,SSE,159,0.0,3.0,83,0.00,,CLR,0.00,VWS V14.01,2013-04-30 06:50:00,
2013-04-30 01:55:00,63.3,58.1,29.69,SSE,159,0.0,3.0,83,0.00,,CLR,0.00,VWS V14.01,2013-04-30 06:55:00,
2013-04-30 02:00:00,63.1,57.9,29.69,SSE,159,0.0,0.0,83,0.00,,CLR,0.00,VWS V14.01,2013-04-30 07:00:00,
2013-04-30 02:06:00,63.0,58.1,29.69,SSE,159,0.0,1.0,84,0.00,,CLR,0.00,VWS V14.01,2013-04-30 07:06:00,
2013-04-30 02:11:00,62.8,57.9,29.69,SSE,159,0.0,1.0,84,0.00,,CLR,0.00,VWS V14.01,2013-04-30 07:11:00,
2013-04-30 02:16:00,62.6,57.7,29.69,SSE,159,0.0,1.0,84,0.00,,CLR,0.00,VWS V14.01,2013-04-30 07:16:00,
2013-04-30 02:21:00,62.4,57.5,29.69,SSE,159,0.0,1.0,84,0.00,,CLR,0.00,VWS V14.01,2013-04-30 07:21:00,
2013-04-30 02:26:00,62.3,57.7,29.69,SSE,159,0.0,1.0,85,0.00,,CLR,0.00,VWS V14.01,2013-04-30 07:26:00,
2013-04-30 02:30:00,62.2,57.6,29.69,SSE,159,0.0,1.0,85,0.00,,CLR,0.00,VWS V14.01,2013-04-30 07:30:00,
2013-04-30 02:31:00,62.1,57.5,29.69,SSE,159,0.0,0.0,85,0.00,,CLR,0.00,VWS V14.01,2013-04-30 07:31:00,
2013-04-30 02:36:00,62.1,57.5,29.69,SSE,159,0.0,1.0,85,0.00,,CLR,0.00,VWS V14.01,2013-04-30 07:36:00,
2013-04-30 02:41:00,62.2,57.6,29.69,SSE,159,0.0,1.0,85,0.00,,CLR,0.00,VWS V14.01,2013-04-30 07:41:00,
2013-04-30 02:46:00,62.4,57.5,29.69,SSE,159,0.0,1.0,84,0.00,,CLR,0.00,VWS V14.01,2013-04-30 07:46:00,
2013-04-30 02:51:00,62.5,57.6,29.69,SSE,159,0.0,1.0,84,0.00,,CLR,0.00,VWS V14.01,2013-04-30 07:51:00,
2013-04-30 02:56:00,62.5,57.3,29.69,SSE,159,0.0,1.0,83,0.00,,CLR,0.00,VWS V14.01,2013-04-30 07:56:00,
2013-04-30 03:00:00,62.5,57.3,29.69,SSE,159,0.0,1.0,83,0.00,,CLR,0.00,VWS V14.01,2013-04-30 08:00:00,
2013-04-30 03:02:00,62.5,57.3,29.69,SSE,159,0.0,0.0,83,0.00,,CLR,0.00,VWS V14.01,2013-04-30 08:02:00,
2013-04-30 03:07:00,62.5,57.3,29.69,South,175,1.0,1.0,83,0.00,,CLR,0.00,VWS V14.01,2013-04-30 08:07:00,
2013-04-30 03:12:00,62.6,57.4,29.69,ESE,111,0.0,2.0,83,0.00,,CLR,0.00,VWS V14.01,2013-04-30 08:12:00,
2013-04-30 03:17:00,62.9,57.3,29.69,SSE,155,0.0,2.0,82,0.00,,CLR,0.00,VWS V14.01,2013-04-30 08:17:00,
2013-04-30 03:22:00,63.1,57.5,29.69,SSE,159,0.0,2.0,82,0.00,,CLR,0.00,VWS V14.01,2013-04-30 08:22:00,
2013-04-30 03:27:00,63.2,57.3,29.69,SSE,159,0.0,2.0,81,0.00,,CLR,0.00,VWS V14.01,2013-04-30 08:27:00,
2013-04-30 03:30:00,63.2,57.3,29.69,SSE,159,0.0,2.0,81,0.00,,CLR,0.00,VWS V14.01,2013-04-30 08:30:00,
2013-04-30 03:32:00,63.2,57.3,29.69,SSE,158,0.0,0.0,81,0.00,,CLR,0.00,VWS V14.01,2013-04-30 08:32:00,
2013-04-30 03:37:00,63.1,57.2,29.70,SSE,158,0.0,0.0,81,0.00,,CLR,0.00,VWS V14.01,2013-04-30 08:37:00,
2013-04-30 03:42:00,63.0,57.1,29.70,SSE,158,0.0,0.0,81,0.00,,CLR,0.00,VWS V14.01,2013-04-30 08:42:00,
2013-04-30 03:47:00,62.7,57.1,29.70,SSE,158,0.0,0.0,82,0.00,,CLR,0.00,VWS V14.01,2013-04-30 08:47:00,
2013-04-30 03:52:00,62.5,56.9,29.70,SSE,158,0.0,0.0,82,0.00,,CLR,0.00,VWS V14.01,2013-04-30 08:52:00,
2013-04-30 03:58:00,62.3,57.1,29.69,SSE,158,0.0,0.0,83,0.00,,CLR,0.00,VWS V14.01,2013-04-30 08:58:00,
2013-04-30 04:00:00,62.2,57.0,29.69,SSE,158,0.0,0.0,83,0.00,,CLR,0.00,VWS V14.01,2013-04-30 09:00:00,
2013-04-30 04:03:00,62.1,56.9,29.69,SSE,158,0.0,0.0,83,0.00,,CLR,0.00,VWS V14.01,2013-04-30 09:03:00,
2013-04-30 04:08:00,62.2,57.0,29.69,SSE,158,0.0,0.0,83,0.00,,CLR,0.00,VWS V14.01,2013-04-30 09:08:00,
2013-04-30 04:13:00,62.3,57.1,29.69,SSE,158,0.0,1.0,83,0.00,,CLR,0.00,VWS V14.01,2013-04-30 09:13:00,
2013-04-30 04:18:00,62.3,57.1,29.69,SSE,158,0.0,1.0,83,0.00,,CLR,0.00,VWS V14.01,2013-04-30 09:18:00,
2013-04-30 04:23:00,62.3,57.1,29.70,SSE,158,0.0,1.0,83,0.00,,CLR,0.00,VWS V14.01,2013-04-30 09:23:00,
2013-04-30 04:28:00,62.3,57.1,29.69,SSE,158,0.0,1.0,83,0.00,,CLR,0.00,VWS V14.01,2013-04-30 09:28:00,
2013-04-30 04:30:00,62.3,57.1,29.70,South,180,0.0,2.0,83,0.00,,CLR,0.00,VWS V14.01,2013-04-30 09:30:00,
2013-04-30 04:33:00,62.2,57.0,29.69,South,180,0.0,0.0,83,0.00,,CLR,0.00,VWS V14.01,2013-04-30 09:33:00,
2013-04-30 04:38:00,62.0,56.8,29.69,South,180,0.0,1.0,83,0.00,,CLR,0.00,VWS V14.01,2013-04-30 09:38:00,
2013-04-30 04:43:00,61.9,56.7,29.69,South,180,0.0,1.0,83,0.00,,CLR,0.00,VWS V14.01,2013-04-30 09:43:00,
2013-04-30 04:48:00,61.7,56.8,29.69,South,180,0.0,1.0,84,0.00,,CLR,0.00,VWS V14.01,2013-04-30 09:48:00,
2013-04-30 04:53:00,61.4,56.5,29.69,South,180,0.0,1.0,84,0.00,,CLR,0.00,VWS V14.01,2013-04-30 09:53:00,
2013-04-30 04:58:00,61.2,56.3,29.69,South,180,0.0,1.0,84,0.00,,CLR,0.00,VWS V14.01,2013-04-30 09:58:00,
2013-04-30 05:00:00,61.2,56.3,29.69,South,180,0.0,1.0,84,0.00,,CLR,0.00,VWS V14.01,2013-04-30 10:00:00,
2013-04-30 05:03:00,61.1,56.6,29.69,South,180,0.0,0.0,85,0.00,,CLR,0.00,VWS V14.01,2013-04-30 10:03:00,
2013-04-30 05:09:00,60.9,56.4,29.69,South,184,0.0,0.0,85,0.00,,CLR,0.00,VWS V14.01,2013-04-30 10:09:00,
2013-04-30 05:14:00,60.7,56.2,29.69,South,183,0.0,1.0,85,0.00,,CLR,0.00,VWS V14.01,2013-04-30 10:14:00,
2013-04-30 05:19:00,60.5,56.0,29.69,South,183,0.0,1.0,85,0.00,,CLR,0.00,VWS V14.01,2013-04-30 10:19:00,
2013-04-30 05:24:00,60.3,56.1,29.69,South,183,0.0,1.0,86,0.00,,CLR,0.00,VWS V14.01,2013-04-30 10:24:00,
2013-04-30 05:29:00,60.2,56.0,29.69,South,183,0.0,1.0,86,0.00,,CLR,0.00,VWS V14.01,2013-04-30 10:29:00,
2013-04-30 05:30:00,60.2,56.0,29.69,South,183,0.0,1.0,86,0.00,,CLR,0.00,VWS V14.01,2013-04-30 10:30:00,
2013-04-30 05:34:00,60.2,56.0,29.69,South,183,0.0,0.0,86,0.00,,CLR,0.00,VWS V14.01,2013-04-30 10:34:00,
2013-04-30 05:39:00,60.2,56.0,29.69,South,183,0.0,0.0,86,0.00,,CLR,0.00,VWS V14.01,2013-04-30 10:39:00,
2013-04-30 05:44:00,60.2,56.0,29.70,South,183,0.0,0.0,86,0.00,,CLR,0.00,VWS V14.01,2013-04-30 10:44:00,
2013-04-30 05:49:00,60.1,55.9,29.70,South,183,0.0,0.0,86,0.00,,CLR,0.00,VWS V14.01,2013-04-30 10:49:00,
2013-04-30 05:54:00,59.9,55.7,29.70,South,183,0.0,1.0,86,0.00,,CLR,0.00,VWS V14.01,2013-04-30 10:54:00,
2013-04-30 05:59:00,59.8,55.9,29.70,South,183,0.0,1.0,87,0.00,,CLR,0.00,VWS V14.01,2013-04-30 10:59:00,
2013-04-30 06:00:00,59.8,55.9,29.70,South,183,0.0,1.0,87,0.00,,CLR,0.00,VWS V14.01,2013-04-30 11:00:00,
2013-04-30 06:04:00,59.6,55.7,29.70,South,183,0.0,0.0,87,0.00,,CLR,0.00,VWS V14.01,2013-04-30 11:04:00,
2013-04-30 06:10:00,59.5,55.6,29.70,South,183,0.0,1.0,87,0.00,,CLR,0.00,VWS V14.01,2013-04-30 11:10:00,
2013-04-30 06:15:00,59.4,55.5,29.70,South,183,0.0,1.0,87,0.00,,CLR,0.00,VWS V14.01,2013-04-30 11:15:00,
2013-04-30 06:20:00,59.2,55.3,29.70,South,183,0.0,1.0,87,0.00,,CLR,0.00,VWS V14.01,2013-04-30 11:20:00,
2013-04-30 06:25:00,59.1,55.5,29.71,South,183,0.0,1.0,88,0.00,,CLR,0.00,VWS V14.01,2013-04-30 11:25:00,
2013-04-30 06:30:00,59.0,55.5,29.71,South,183,0.0,0.0,88,0.00,,CLR,0.00,VWS V14.01,2013-04-30 11:30:00,
2013-04-30 06:35:00,59.0,55.5,29.71,South,183,0.0,0.0,88,0.00,,CLR,0.00,VWS V14.01,2013-04-30 11:35:00,
2013-04-30 06:40:00,59.0,55.5,29.72,South,183,0.0,0.0,88,0.00,,CLR,0.00,VWS V14.01,2013-04-30 11:40:00,
2013-04-30 06:45:00,59.0,55.5,29.72,South,183,0.0,0.0,88,0.00,,CLR,0.00,VWS V14.01,2013-04-30 11:45:00,
2013-04-30 06:50:00,58.9,55.4,29.72,South,183,0.0,0.0,88,0.00,,CLR,0.00,VWS V14.01,2013-04-30 11:50:00,
2013-04-30 06:55:00,59.1,55.5,29.73,South,183,0.0,0.0,88,0.00,,CLR,0.00,VWS V14.01,2013-04-30 11:55:00,
2013-04-30 07:00:00,59.5,56.0,29.73,South,183,0.0,0.0,88,0.00,,CLR,0.00,VWS V14.01,2013-04-30 12:00:00,
2013-04-30 07:05:00,60.0,56.1,29.73,South,183,0.0,0.0,87,0.00,,CLR,0.00,VWS V14.01,2013-04-30 12:05:00,
2013-04-30 07:11:00,60.5,56.3,29.73,South,183,0.0,0.0,86,0.00,,CLR,0.00,VWS V14.01,2013-04-30 12:11:00,
2013-04-30 07:16:00,60.9,56.4,29.73,South,183,0.0,0.0,85,0.00,,CLR,0.00,VWS V14.01,2013-04-30 12:16:00,
2013-04-30 07:21:00,61.4,56.5,29.73,South,183,0.0,0.0,84,0.00,,CLR,0.00,VWS V14.01,2013-04-30 12:21:00,
2013-04-30 07:26:00,62.0,56.8,29.73,South,183,0.0,0.0,83,0.00,,CLR,0.00,VWS V14.01,2013-04-30 12:26:00,
2013-04-30 07:30:00,62.5,56.9,29.73,South,183,0.0,0.0,82,0.00,,CLR,0.00,VWS V14.01,2013-04-30 12:30:00,
2013-04-30 07:31:00,62.7,56.8,29.74,South,183,0.0,0.0,81,0.00,,CLR,0.00,VWS V14.01,2013-04-30 12:31:00,
2013-04-30 07:36:00,63.5,57.2,29.74,South,183,0.0,1.0,80,0.00,,CLR,0.00,VWS V14.01,2013-04-30 12:36:00,
2013-04-30 07:41:00,64.1,57.5,29.74,SSW,194,0.0,1.0,79,0.00,,CLR,0.00,VWS V14.01,2013-04-30 12:41:00,
2013-04-30 07:46:00,64.8,57.4,29.74,South,190,0.0,1.0,77,0.00,,CLR,0.00,VWS V14.01,2013-04-30 12:46:00,
2013-04-30 07:51:00,65.2,57.8,29.74,SSE,165,0.0,1.0,77,0.00,,CLR,0.00,VWS V14.01,2013-04-30 12:51:00,
2013-04-30 07:56:00,65.6,57.5,29.74,SSE,165,1.0,2.0,75,0.00,,CLR,0.00,VWS V14.01,2013-04-30 12:56:00,
2013-04-30 08:00:00,65.6,57.5,29.74,SSE,158,0.0,2.0,75,0.00,,CLR,0.00,VWS V14.01,2013-04-30 13:00:00,
2013-04-30 08:01:00,65.7,57.6,29.74,SSE,153,1.0,3.0,75,0.00,,CLR,0.00,VWS V14.01,2013-04-30 13:01:00,
2013-04-30 08:06:00,65.8,58.0,29.74,SSE,155,0.0,3.0,76,0.00,,CLR,0.00,VWS V14.01,2013-04-30 13:06:00,
2013-04-30 08:12:00,65.9,58.1,29.74,South,187,0.0,3.0,76,0.00,,CLR,0.00,VWS V14.01,2013-04-30 13:12:00,
2013-04-30 08:17:00,66.0,58.2,29.74,South,187,1.0,3.0,76,0.00,,CLR,0.00,VWS V14.01,2013-04-30 13:17:00,
2013-04-30 08:22:00,66.2,58.8,29.74,SSE,155,1.0,3.0,77,0.00,,CLR,0.00,VWS V14.01,2013-04-30 13:22:00,
2013-04-30 08:27:00,66.4,58.2,29.74,SE,134,0.0,3.0,75,0.00,,CLR,0.00,VWS V14.01,2013-04-30 13:27:00,
2013-04-30 08:30:00,66.6,58.8,29.74,SE,134,0.0,3.0,76,0.00,,CLR,0.00,VWS V14.01,2013-04-30 13:30:00,
2013-04-30 08:32:00,66.6,58.8,29.74,SE,142,0.0,1.0,76,0.00,,CLR,0.00,VWS V14.01,2013-04-30 13:32:00,
2013-04-30 08:37:00,66.8,58.6,29.75,SSE,158,1.0,3.0,75,0.00,,CLR,0.00,VWS V14.01,2013-04-30 13:37:00,
2013-04-30 08:42:00,67.0,58.5,29.75,South,177,1.0,3.0,74,0.00,,CLR,0.00,VWS V14.01,2013-04-30 13:42:00,
2013-04-30 08:47:00,67.2,59.4,29.75,SE,130,0.0,3.0,76,0.00,,CLR,0.00,VWS V14.01,2013-04-30 13:47:00,
2013-04-30 08:52:00,67.5,58.9,29.75,South,174,2.0,3.0,74,0.00,,CLR,0.00,VWS V14.01,2013-04-30 13:52:00,
2013-04-30 08:57:00,67.9,58.9,29.75,SSW,196,0.0,3.0,73,0.00,,CLR,0.00,VWS V14.01,2013-04-30 13:57:00,
2013-04-30 09:00:00,68.1,59.9,29.75,SE,132,0.0,3.0,75,0.00,,CLR,0.00,VWS V14.01,2013-04-30 14:00:00,
2013-04-30 09:02:00,68.3,59.3,29.75,South,175,0.0,2.0,73,0.00,,CLR,0.00,VWS V14.01,2013-04-30 14:02:00,
2013-04-30 09:07:00,68.8,60.6,29.75,South,179,1.0,2.0,75,0.00,,CLR,0.00,VWS V14.01,2013-04-30 14:07:00,
2013-04-30 09:13:00,69.4,59.6,29.75,SSE,166,0.0,3.0,71,0.00,,CLR,0.00,VWS V14.01,2013-04-30 14:13:00,
2013-04-30 09:18:00,70.1,59.9,29.75,South,169,1.0,3.0,70,0.00,,CLR,0.00,VWS V14.01,2013-04-30 14:18:00,
2013-04-30 09:23:00,70.8,59.3,29.75,SSW,212,0.0,3.0,67,0.00,,CLR,0.00,VWS V14.01,2013-04-30 14:23:00,
2013-04-30 09:28:00,71.5,59.6,29.75,SSE,161,1.0,3.0,66,0.00,,CLR,0.00,VWS V14.01,2013-04-30 14:28:00,
2013-04-30 09:30:00,71.7,60.2,29.75,South,177,0.0,3.0,67,0.00,,CLR,0.00,VWS V14.01,2013-04-30 14:30:00,
2013-04-30 09:33:00,72.1,59.3,29.75,SSE,149,0.0,4.0,64,0.00,,CLR,0.00,VWS V14.01,2013-04-30 14:33:00,
2013-04-30 09:38:00,72.7,59.8,29.75,SSW,194,0.0,4.0,64,0.00,,CLR,0.00,VWS V14.01,2013-04-30 14:38:00,
2013-04-30 09:43:00,73.3,60.0,29.75,South,169,0.0,4.0,63,0.00,,CLR,0.00,VWS V14.01,2013-04-30 14:43:00,
2013-04-30 09:48:00,73.8,59.5,29.75,South,169,1.0,4.0,61,0.00,,CLR,0.00,VWS V14.01,2013-04-30 14:48:00,
2013-04-30 09:53:00,74.1,59.3,29.75,ESE,118,1.0,4.0,60,0.00,,CLR,0.00,VWS V14.01,2013-04-30 14:53:00,
2013-04-30 09:58:00,74.5,60.2,29.75,South,173,2.0,4.0,61,0.00,,CLR,0.00,VWS V14.01,2013-04-30 14:58:00,
2013-04-30 10:00:00,74.5,59.2,29.75,SE,144,1.0,4.0,59,0.00,,CLR,0.00,VWS V14.01,2013-04-30 15:00:00,
2013-04-30 10:03:00,74.8,60.9,29.75,SE,139,3.0,3.0,62,0.00,,CLR,0.00,VWS V14.01,2013-04-30 15:03:00,
2013-04-30 10:08:00,74.8,58.6,29.75,South,173,1.0,6.0,57,0.00,,CLR,0.00,VWS V14.01,2013-04-30 15:08:00,
2013-04-30 10:14:00,74.9,60.6,29.75,SSE,155,0.0,6.0,61,0.00,,CLR,0.00,VWS V14.01,2013-04-30 15:14:00,
2013-04-30 10:19:00,75.3,59.5,29.75,South,174,2.0,6.0,58,0.00,,CLR,0.00,VWS V14.01,2013-04-30 15:19:00,
2013-04-30 10:24:00,75.7,60.4,29.75,South,178,2.0,6.0,59,0.00,,CLR,0.00,VWS V14.01,2013-04-30 15:24:00,
2013-04-30 10:29:00,76.1,61.2,29.75,SSW,199,1.0,6.0,60,0.00,,CLR,0.00,VWS V14.01,2013-04-30 15:29:00,
2013-04-30 10:30:00,76.1,59.8,29.75,South,169,2.0,6.0,57,0.00,,CLR,0.00,VWS V14.01,2013-04-30 15:30:00,
2013-04-30 10:34:00,76.4,59.6,29.75,SSW,212,0.0,8.0,56,0.00,,CLR,0.00,VWS V14.01,2013-04-30 15:34:00,
2013-04-30 10:39:00,76.9,59.5,29.75,South,171,1.0,8.0,55,0.00,,CLR,0.00,VWS V14.01,2013-04-30 15:39:00,
2013-04-30 10:44:00,76.9,61.0,29.75,South,177,0.0,8.0,58,0.00,,CLR,0.00,VWS V14.01,2013-04-30 15:44:00,
2013-04-30 10:49:00,77.2,59.3,29.75,SW,217,0.0,8.0,54,0.00,,CLR,0.00,VWS V14.01,2013-04-30 15:49:00,
2013-04-30 10:54:00,77.4,59.5,29.75,ESE,119,3.0,8.0,54,0.00,,CLR,0.00,VWS V14.01,2013-04-30 15:54:00,
2013-04-30 10:59:00,77.7,60.8,29.75,South,178,3.0,8.0,56,0.00,,CLR,0.00,VWS V14.01,2013-04-30 15:59:00,
2013-04-30 11:00:00,77.7,60.8,29.75,South,178,2.0,8.0,56,0.00,,CLR,0.00,VWS V14.01,2013-04-30 16:00:00,
2013-04-30 11:04:00,78.0,61.0,29.75,SSW,208,0.0,2.0,56,0.00,,CLR,0.00,VWS V14.01,2013-04-30 16:04:00,
2013-04-30 11:10:00,78.4,60.4,29.74,South,182,0.0,6.0,54,0.00,,CLR,0.00,VWS V14.01,2013-04-30 16:10:00,
2013-04-30 11:15:00,78.5,58.9,29.74,SSW,202,0.0,6.0,51,0.00,,CLR,0.00,VWS V14.01,2013-04-30 16:15:00,
2013-04-30 11:20:00,78.8,60.8,29.75,SSW,203,0.0,6.0,54,0.00,,CLR,0.00,VWS V14.01,2013-04-30 16:20:00,
2013-04-30 11:25:00,79.1,58.3,29.74,SSE,167,0.0,6.0,49,0.00,,CLR,0.00,VWS V14.01,2013-04-30 16:25:00,
2013-04-30 11:30:00,79.6,60.4,29.74,SW,214,1.0,1.0,52,0.00,,CLR,0.00,VWS V14.01,2013-04-30 16:30:00,
2013-04-30 11:35:00,80.0,59.1,29.74,SSW,203,0.0,4.0,49,0.00,,CLR,0.00,VWS V14.01,2013-04-30 16:35:00,
2013-04-30 11:40:00,80.5,59.0,29.74,South,171,0.0,4.0,48,0.00,,CLR,0.00,VWS V14.01,2013-04-30 16:40:00,
2013-04-30 11:45:00,80.8,60.4,29.74,SSW,194,1.0,4.0,50,0.00,,CLR,0.00,VWS V14.01,2013-04-30 16:45:00,
2013-04-30 11:50:00,81.0,59.5,29.74,South,179,2.0,4.0,48,0.00,,CLR,0.00,VWS V14.01,2013-04-30 16:50:00,
2013-04-30 11:55:00,80.8,59.9,29.74,SSE,156,1.0,5.0,49,0.00,,CLR,0.00,VWS V14.01,2013-04-30 16:55:00,
2013-04-30 12:00:00,80.1,58.7,29.74,SSE,168,3.0,3.0,48,0.00,,CLR,0.00,VWS V14.01,2013-04-30 17:00:00,
2013-04-30 12:05:00,79.9,57.3,29.73,SSE,150,1.0,4.0,46,0.00,,CLR,0.00,VWS V14.01,2013-04-30 17:05:00,
2013-04-30 12:11:00,80.4,55.9,29.73,SSW,194,1.0,8.0,43,0.00,,CLR,0.00,VWS V14.01,2013-04-30 17:11:00,
2013-04-30 12:16:00,80.9,55.7,29.73,SSE,151,6.0,8.0,42,0.00,,CLR,0.00,VWS V14.01,2013-04-30 17:16:00,
2013-04-30 12:21:00,80.7,56.2,29.73,SE,124,3.0,9.0,43,0.00,,CLR,0.00,VWS V14.01,2013-04-30 17:21:00,
2013-04-30 12:26:00,80.6,52.0,29.73,South,177,2.0,9.0,37,0.00,,CLR,0.00,VWS V14.01,2013-04-30 17:26:00,
2013-04-30 12:30:00,80.6,54.8,29.73,South,183,1.0,9.0,41,0.00,,CLR,0.00,VWS V14.01,2013-04-30 17:30:00,
2013-04-30 12:31:00,80.6,56.1,29.73,South,170,3.0,3.0,43,0.00,,CLR,0.00,VWS V14.01,2013-04-30 17:31:00,
2013-04-30 12:36:00,81.1,55.9,29.73,SSW,192,0.0,6.0,42,0.00,,CLR,0.00,VWS V14.01,2013-04-30 17:36:00,
2013-04-30 12:41:00,81.2,55.3,29.72,SSE,157,5.0,6.0,41,0.00,,CLR,0.00,VWS V14.01,2013-04-30 17:41:00,
2013-04-30 12:46:00,81.3,53.3,29.72,SW,214,0.0,6.0,38,0.00,,CLR,0.00,VWS V14.01,2013-04-30 17:46:00,
2013-04-30 12:51:00,81.4,53.4,29.72,South,169,3.0,6.0,38,0.00,,SCT055,0.00,VWS V14.01,2013-04-30 17:51:00,
2013-04-30 12:56:00,81.4,54.8,29.72,South,172,2.0,8.0,40,0.00,,SCT055,0.00,VWS V14.01,2013-04-30 17:56:00,
2013-04-30 13:00:00,81.4,53.4,29.72,SSW,193,0.0,8.0,38,0.00,,CLR,0.00,VWS V14.01,2013-04-30 18:00:00,
2013-04-30 13:02:00,81.4,53.4,29.72,South,173,1.0,3.0,38,0.00,,SCT055,0.00,VWS V14.01,2013-04-30 18:02:00,
2013-04-30 13:07:00,81.5,55.5,29.72,South,173,4.0,6.0,41,0.00,,SCT055,0.00,VWS V14.01,2013-04-30 18:07:00,
2013-04-30 13:12:00,81.6,53.6,29.72,SSE,153,6.0,8.0,38,0.00,,SCT055,0.00,VWS V14.01,2013-04-30 18:12:00,
2013-04-30 13:17:00,81.6,54.3,29.71,SSE,150,1.0,8.0,39,0.00,,SCT055,0.00,VWS V14.01,2013-04-30 18:17:00,
2013-04-30 13:22:00,81.4,54.8,29.71,SE,140,4.0,8.0,40,0.00,,SCT055,0.00,VWS V14.01,2013-04-30 18:22:00,
2013-04-30 13:27:00,81.2,55.3,29.71,South,182,3.0,8.0,41,0.00,,SCT055,0.00,VWS V14.01,2013-04-30 18:27:00,
2013-04-30 13:30:00,81.3,54.0,29.72,South,179,7.0,8.0,39,0.00,,CLR,0.00,VWS V14.01,2013-04-30 18:30:00,
2013-04-30 13:32:00,81.3,53.3,29.71,SSE,156,3.0,7.0,38,0.00,,SCT055,0.00,VWS V14.01,2013-04-30 18:32:00,
2013-04-30 13:37:00,81.2,53.2,29.71,South,177,3.0,7.0,38,0.00,,SCT055,0.00,VWS V14.01,2013-04-30 18:37:00,
2013-04-30 13:42:00,81.1,52.4,29.71,SSE,160,4.0,10.0,37,0.00,,SCT055,0.00,VWS V14.01,2013-04-30 18:42:00,
2013-04-30 13:47:00,81.1,53.1,29.71,SE,142,5.0,10.0,38,0.00,,SCT055,0.00,VWS V14.01,2013-04-30 18:47:00,
2013-04-30 13:52:00,81.1,51.7,29.71,South,178,2.0,10.0,36,0.00,,CLR,0.00,VWS V14.01,2013-04-30 18:52:00,
2013-04-30 13:57:00,81.0,53.7,29.71,South,180,1.0,10.0,39,0.00,,CLR,0.00,VWS V14.01,2013-04-30 18:57:00,
2013-04-30 14:00:00,81.1,53.8,29.71,SSE,155,6.0,10.0,39,0.00,,CLR,0.00,VWS V14.01,2013-04-30 19:00:00,
2013-04-30 14:03:00,81.1,51.7,29.71,South,185,2.0,7.0,36,0.00,,CLR,0.00,VWS V14.01,2013-04-30 19:03:00,
2013-04-30 14:08:00,81.0,50.8,29.71,South,187,6.0,7.0,35,0.00,,CLR,0.00,VWS V14.01,2013-04-30 19:08:00,
2013-04-30 14:13:00,81.1,50.9,29.71,South,184,4.0,7.0,35,0.00,,CLR,0.00,VWS V14.01,2013-04-30 19:13:00,
2013-04-30 14:18:00,81.2,51.7,29.71,SSE,162,8.0,8.0,36,0.00,,CLR,0.00,VWS V14.01,2013-04-30 19:18:00,
2013-04-30 14:23:00,81.0,51.6,29.71,South,174,1.0,8.0,36,0.00,,CLR,0.00,VWS V14.01,2013-04-30 19:23:00,
2013-04-30 14:28:00,81.1,50.9,29.71,SSE,154,3.0,10.0,35,0.00,,CLR,0.00,VWS V14.01,2013-04-30 19:28:00,
2013-04-30 14:30:00,81.1,49.3,29.71,SE,134,5.0,10.0,33,0.00,,CLR,0.00,VWS V14.01,2013-04-30 19:30:00,
2013-04-30 14:33:00,81.2,50.2,29.71,ESE,119,2.0,7.0,34,0.00,,CLR,0.00,VWS V14.01,2013-04-30 19:33:00,
2013-04-30 14:38:00,81.5,49.7,29.71,SSE,153,6.0,9.0,33,0.00,,CLR,0.00,VWS V14.01,2013-04-30 19:38:00,
2013-04-30 14:43:00,81.3,50.3,29.71,SE,136,5.0,10.0,34,0.00,,CLR,0.00,VWS V14.01,2013-04-30 19:43:00,
2013-04-30 14:48:00,81.2,52.5,29.71,South,175,1.0,10.0,37,0.00,,CLR,0.00,VWS V14.01,2013-04-30 19:48:00,
2013-04-30 14:53:00,81.3,53.3,29.70,South,173,3.0,10.0,38,0.00,,CLR,0.00,VWS V14.01,2013-04-30 19:53:00,
2013-04-30 14:59:00,81.5,50.5,29.71,SE,140,3.0,10.0,34,0.00,,CLR,0.00,VWS V14.01,2013-04-30 19:59:00,
2013-04-30 15:00:00,81.5,52.0,29.70,SSE,159,2.0,10.0,36,0.00,,CLR,0.00,VWS V14.01,2013-04-30 20:00:00,
2013-04-30 15:04:00,81.4,50.4,29.70,SSE,154,3.0,6.0,34,0.00,,CLR,0.00,VWS V14.01,2013-04-30 20:04:00,
2013-04-30 15:09:00,81.5,48.8,29.70,SE,142,5.0,12.0,32,0.00,,CLR,0.00,VWS V14.01,2013-04-30 20:09:00,
2013-04-30 15:14:00,81.5,47.1,29.70,SSE,151,4.0,12.0,30,0.00,,CLR,0.00,VWS V14.01,2013-04-30 20:14:00,
2013-04-30 15:19:00,81.4,46.1,29.70,South,188,4.0,12.0,29,0.00,,CLR,0.00,VWS V14.01,2013-04-30 20:19:00,
2013-04-30 15:24:00,81.6,47.2,29.70,SSE,155,5.0,12.0,30,0.00,,CLR,0.00,VWS V14.01,2013-04-30 20:24:00,
2013-04-30 15:29:00,81.5,47.1,29.70,SSE,160,6.0,12.0,30,0.00,,CLR,0.00,VWS V14.01,2013-04-30 20:29:00,
2013-04-30 15:30:00,81.5,47.1,29.70,SE,140,3.0,12.0,30,0.00,,CLR,0.00,VWS V14.01,2013-04-30 20:30:00,
2013-04-30 15:34:00,81.6,47.2,29.69,SSE,163,7.0,9.0,30,0.00,,CLR,0.00,VWS V14.01,2013-04-30 20:34:00,
2013-04-30 15:39:00,81.4,47.9,29.69,South,180,2.0,9.0,31,0.00,,CLR,0.00,VWS V14.01,2013-04-30 20:39:00,
2013-04-30 15:44:00,81.4,48.7,29.69,SE,132,3.0,9.0,32,0.00,,CLR,0.00,VWS V14.01,2013-04-30 20:44:00,
2013-04-30 15:49:00,81.6,47.2,29.69,South,171,3.0,10.0,30,0.00,,CLR,0.00,VWS V14.01,2013-04-30 20:49:00,
2013-04-30 15:55:00,81.6,48.9,29.69,SSE,157,2.0,10.0,32,0.00,,CLR,0.00,VWS V14.01,2013-04-30 20:55:00,
2013-04-30 16:00:00,81.6,48.1,29.69,South,188,3.0,10.0,31,0.00,,CLR,0.00,VWS V14.01,2013-04-30 21:00:00,
2013-04-30 16:05:00,81.6,46.3,29.69,SE,131,4.0,7.0,29,0.00,,CLR,0.00,VWS V14.01,2013-04-30 21:05:00,
2013-04-30 16:10:00,81.4,47.0,29.69,South,171,3.0,10.0,30,0.00,,CLR,0.00,VWS V14.01,2013-04-30 21:10:00,
2013-04-30 16:15:00,81.4,47.9,29.69,SSE,154,5.0,10.0,31,0.00,,CLR,0.00,VWS V14.01,2013-04-30 21:15:00,
2013-04-30 16:20:00,81.4,47.9,29.69,SSE,159,3.0,10.0,31,0.00,,CLR,0.00,VWS V14.01,2013-04-30 21:20:00,
2013-04-30 16:25:00,81.4,46.1,29.69,SSW,195,1.0,10.0,29,0.00,,CLR,0.00,VWS V14.01,2013-04-30 21:25:00,
2013-04-30 16:30:00,81.3,46.0,29.69,SSE,153,2.0,7.0,29,0.00,,CLR,0.00,VWS V14.01,2013-04-30 21:30:00,
2013-04-30 16:35:00,81.2,49.4,29.69,ESE,122,2.0,7.0,33,0.00,,CLR,0.00,VWS V14.01,2013-04-30 21:35:00,
2013-04-30 16:40:00,81.1,47.6,29.68,SSW,194,2.0,7.0,31,0.00,,CLR,0.00,VWS V14.01,2013-04-30 21:40:00,
2013-04-30 16:45:00,81.1,49.3,29.68,South,183,1.0,7.0,33,0.00,,CLR,0.00,VWS V14.01,2013-04-30 21:45:00,
2013-04-30 16:50:00,81.3,48.7,29.68,SSE,165,2.0,7.0,32,0.00,,CLR,0.00,VWS V14.01,2013-04-30 21:50:00,
2013-04-30 16:56:00,81.2,48.6,29.68,SW,215,2.0,7.0,32,0.00,,CLR,0.00,VWS V14.01,2013-04-30 21:56:00,
2013-04-30 17:00:00,81.2,48.6,29.68,SE,140,0.0,7.0,32,0.00,,CLR,0.00,VWS V14.01,2013-04-30 22:00:00,
2013-04-30 17:01:00,81.2,49.4,29.68,SSE,165,1.0,2.0,33,0.00,,CLR,0.00,VWS V14.01,2013-04-30 22:01:00,
2013-04-30 17:06:00,81.2,49.4,29.68,SE,146,3.0,6.0,33,0.00,,CLR,0.00,VWS V14.01,2013-04-30 22:06:00,
2013-04-30 17:11:00,81.1,48.5,29.68,South,169,5.0,8.0,32,0.00,,CLR,0.00,VWS V14.01,2013-04-30 22:11:00,
2013-04-30 17:16:00,80.9,46.6,29.68,SSE,157,7.0,9.0,30,0.00,,CLR,0.00,VWS V14.01,2013-04-30 22:16:00,
2013-04-30 17:21:00,80.7,47.3,29.69,ESE,105,10.0,10.0,31,0.00,,CLR,0.00,VWS V14.01,2013-04-30 22:21:00,
2013-04-30 17:26:00,80.7,47.3,29.69,SSE,148,0.0,10.0,31,0.00,,CLR,0.00,VWS V14.01,2013-04-30 22:26:00,
2013-04-30 17:30:00,80.6,46.3,29.69,SSE,153,4.0,10.0,30,0.00,,CLR,0.00,VWS V14.01,2013-04-30 22:30:00,
2013-04-30 17:31:00,80.5,47.1,29.69,SSE,168,3.0,9.0,31,0.00,,CLR,0.00,VWS V14.01,2013-04-30 22:31:00,
2013-04-30 17:36:00,80.4,48.7,29.69,SSE,167,5.0,9.0,33,0.00,,CLR,0.00,VWS V14.01,2013-04-30 22:36:00,
2013-04-30 17:41:00,80.2,48.5,29.69,SSE,161,3.0,9.0,33,0.00,,CLR,0.00,VWS V14.01,2013-04-30 22:41:00,
2013-04-30 17:46:00,80.1,47.6,29.69,SSE,155,2.0,9.0,32,0.00,,CLR,0.00,VWS V14.01,2013-04-30 22:46:00,
2013-04-30 17:51:00,80.0,48.3,29.69,ESE,109,2.0,9.0,33,0.00,,CLR,0.00,VWS V14.01,2013-04-30 22:51:00,
2013-04-30 17:56:00,79.8,47.3,29.69,SE,144,3.0,9.0,32,0.00,,CLR,0.00,VWS V14.01,2013-04-30 22:56:00,
2013-04-30 18:00:00,79.6,47.2,29.69,SE,143,2.0,9.0,32,0.00,,CLR,0.00,VWS V14.01,2013-04-30 23:00:00,
2013-04-30 18:01:00,79.6,47.2,29.69,SSE,161,3.0,6.0,32,0.00,,CLR,0.00,VWS V14.01,2013-04-30 23:01:00,
2013-04-30 18:07:00,79.4,47.0,29.69,ESE,113,5.0,6.0,32,0.00,,CLR,0.00,VWS V14.01,2013-04-30 23:07:00,
2013-04-30 18:12:00,79.4,47.0,29.69,SSE,163,3.0,7.0,32,0.00,,CLR,0.00,VWS V14.01,2013-04-30 23:12:00,
2013-04-30 18:17:00,79.2,46.8,29.69,South,188,4.0,7.0,32,0.00,,CLR,0.00,VWS V14.01,2013-04-30 23:17:00,
2013-04-30 18:22:00,79.1,46.7,29.69,SE,143,5.0,8.0,32,0.00,,CLR,0.00,VWS V14.01,2013-04-30 23:22:00,
2013-04-30 18:27:00,79.0,45.8,29.69,South,172,3.0,8.0,31,0.00,,CLR,0.00,VWS V14.01,2013-04-30 23:27:00,
2013-04-30 18:30:00,78.9,46.6,29.69,South,182,3.0,8.0,32,0.00,,CLR,0.00,VWS V14.01,2013-04-30 23:30:00,
2013-04-30 18:32:00,78.9,46.6,29.69,ESE,113,3.0,4.0,32,0.00,,CLR,0.00,VWS V14.01,2013-04-30 23:32:00,
2013-04-30 18:37:00,78.7,47.2,29.69,SSE,149,3.0,7.0,33,0.00,,CLR,0.00,VWS V14.01,2013-04-30 23:37:00,
2013-04-30 18:42:00,78.5,47.0,29.69,South,183,3.0,7.0,33,0.00,,CLR,0.00,VWS V14.01,2013-04-30 23:42:00,
2013-04-30 18:47:00,78.4,47.7,29.69,SE,138,3.0,7.0,34,0.00,,CLR,0.00,VWS V14.01,2013-04-30 23:47:00,
2013-04-30 18:52:00,78.2,47.6,29.69,South,169,3.0,7.0,34,0.00,,CLR,0.00,VWS V14.01,2013-04-30 23:52:00,
2013-04-30 18:57:00,78.0,48.9,29.70,South,178,1.0,7.0,36,0.00,,CLR,0.00,VWS V14.01,2013-04-30 23:57:00,
2013-04-30 19:00:00,77.9,48.8,29.70,SE,138,1.0,7.0,36,0.00,,CLR,0.00,VWS V14.01,2013-05-01 00:00:00,
2013-04-30 19:02:00,77.8,49.5,29.70,SSE,148,1.0,3.0,37,0.00,,CLR,0.00,VWS V14.01,2013-05-01 00:02:00,
2013-04-30 19:07:00,77.6,49.3,29.70,SSE,156,2.0,7.0,37,0.00,,CLR,0.00,VWS V14.01,2013-05-01 00:07:00,
2013-04-30 19:12:00,77.4,49.8,29.70,SSE,164,1.0,7.0,38,0.00,,CLR,0.00,VWS V14.01,2013-05-01 00:12:00,
2013-04-30 19:18:00,77.1,50.3,29.70,SE,140,2.0,7.0,39,0.00,,CLR,0.00,VWS V14.01,2013-05-01 00:18:00,
2013-04-30 19:23:00,76.9,50.1,29.70,East,86,0.0,7.0,39,0.00,,CLR,0.00,VWS V14.01,2013-05-01 00:23:00,
2013-04-30 19:28:00,76.6,49.8,29.71,SE,130,2.0,7.0,39,0.00,,CLR,0.00,VWS V14.01,2013-05-01 00:28:00,
2013-04-30 19:30:00,76.5,49.7,29.71,SE,126,3.0,7.0,39,0.00,,CLR,0.00,VWS V14.01,2013-05-01 00:30:00,
2013-04-30 19:33:00,76.3,49.5,29.71,SSE,153,1.0,3.0,39,0.00,,CLR,0.00,VWS V14.01,2013-05-01 00:33:00,
2013-04-30 19:38:00,76.0,50.0,29.71,SSE,161,3.0,4.0,40,0.00,,CLR,0.00,VWS V14.01,2013-05-01 00:38:00,
2013-04-30 19:43:00,75.8,49.8,29.71,South,178,1.0,4.0,40,0.00,,CLR,0.00,VWS V14.01,2013-05-01 00:43:00,
2013-04-30 19:48:00,75.4,50.1,29.71,South,178,0.0,4.0,41,0.00,,CLR,0.00,VWS V14.01,2013-05-01 00:48:00,
2013-04-30 19:53:00,75.1,49.8,29.71,South,186,1.0,4.0,41,0.00,,CLR,0.00,VWS V14.01,2013-05-01 00:53:00,
2013-04-30 19:58:00,74.6,50.0,29.71,ESE,109,2.0,4.0,42,0.00,,CLR,0.00,VWS V14.01,2013-05-01 00:58:00,
2013-04-30 20:00:00,74.5,49.3,29.71,SSE,159,1.0,4.0,41,0.00,,CLR,0.00,VWS V14.01,2013-05-01 01:00:00,
2013-04-30 20:03:00,74.2,49.0,29.71,SE,131,1.0,3.0,41,0.00,,CLR,0.00,VWS V14.01,2013-05-01 01:03:00,
2013-04-30 20:08:00,73.8,48.7,29.71,SSE,147,1.0,3.0,41,0.00,,CLR,0.00,VWS V14.01,2013-05-01 01:08:00,
2013-04-30 20:14:00,73.5,49.0,29.71,SE,146,1.0,4.0,42,0.00,,CLR,0.00,VWS V14.01,2013-05-01 01:14:00,
2013-04-30 20:19:00,73.3,48.8,29.71,SE,142,0.0,4.0,42,0.00,,CLR,0.00,VWS V14.01,2013-05-01 01:19:00,
2013-04-30 20:24:00,73.0,49.8,29.71,ESE,121,3.0,4.0,44,0.00,,CLR,0.00,VWS V14.01,2013-05-01 01:24:00,
2013-04-30 20:29:00,72.6,50.1,29.72,SE,144,1.0,4.0,45,0.00,,CLR,0.00,VWS V14.01,2013-05-01 01:29:00,
2013-04-30 20:30:00,72.6,50.1,29.72,South,187,2.0,4.0,45,0.00,,CLR,0.00,VWS V14.01,2013-05-01 01:30:00,
2013-04-30 20:34:00,72.4,50.5,29.72,SE,142,1.0,4.0,46,0.00,,CLR,0.00,VWS V14.01,2013-05-01 01:34:00,
2013-04-30 20:39:00,72.1,50.8,29.72,SE,135,2.0,4.0,47,0.00,,CLR,0.00,VWS V14.01,2013-05-01 01:39:00,
2013-04-30 20:44:00,72.0,51.3,29.72,SE,144,0.0,4.0,48,0.00,,CLR,0.00,VWS V14.01,2013-05-01 01:44:00,
2013-04-30 20:49:00,71.7,51.0,29.72,SE,134,2.0,4.0,48,0.00,,CLR,0.00,VWS V14.01,2013-05-01 01:49:00,
2013-04-30 20:54:00,71.6,51.5,29.72,SE,125,2.0,4.0,49,0.00,,CLR,0.00,VWS V14.01,2013-05-01 01:54:00,
2013-04-30 20:59:00,71.4,51.8,29.73,SE,127,2.0,4.0,50,0.00,,CLR,0.00,VWS V14.01,2013-05-01 01:59:00,
2013-04-30 21:00:00,71.4,51.8,29.73,SE,127,0.0,4.0,50,0.00,,CLR,0.00,VWS V14.01,2013-05-01 02:00:00,
2013-04-30 21:04:00,71.2,52.2,29.73,SE,132,0.0,2.0,51,0.00,,CLR,0.00,VWS V14.01,2013-05-01 02:04:00,
2013-04-30 21:09:00,70.8,52.3,29.73,SE,129,0.0,2.0,52,0.00,,CLR,0.00,VWS V14.01,2013-05-01 02:09:00,
2013-04-30 21:15:00,70.5,52.6,29.73,ESE,108,0.0,2.0,53,0.00,,CLR,0.00,VWS V14.01,2013-05-01 02:15:00,
2013-04-30 21:20:00,70.2,52.3,29.73,SE,138,1.0,2.0,53,0.00,,CLR,0.00,VWS V14.01,2013-05-01 02:20:00,
2013-04-30 21:25:00,69.9,52.0,29.73,ESE,123,0.0,2.0,53,0.00,,CLR,0.00,VWS V14.01,2013-05-01 02:25:00,
2013-04-30 21:30:00,69.6,52.7,29.73,SE,140,0.0,0.0,55,0.00,,CLR,0.00,VWS V14.01,2013-05-01 02:30:00,
2013-04-30 21:35:00,69.4,52.5,29.73,ESE,118,0.0,2.0,55,0.00,,CLR,0.00,VWS V14.01,2013-05-01 02:35:00,
2013-04-30 21:40:00,69.2,52.8,29.73,ESE,112,1.0,2.0,56,0.00,,CLR,0.00,VWS V14.01,2013-05-01 02:40:00,
2013-04-30 21:45:00,69.0,53.2,29.74,SE,125,0.0,2.0,57,0.00,,CLR,0.00,VWS V14.01,2013-05-01 02:45:00,
2013-04-30 21:50:00,68.8,53.0,29.74,SE,124,0.0,2.0,57,0.00,,CLR,0.00,VWS V14.01,2013-05-01 02:50:00,
2013-04-30 21:55:00,68.6,53.2,29.74,ESE,116,0.0,2.0,58,0.00,,CLR,0.00,VWS V14.01,2013-05-01 02:55:00,
2013-04-30 22:00:00,68.3,53.4,29.74,SE,141,0.0,1.0,59,0.00,,CLR,0.00,VWS V14.01,2013-05-01 03:00:00,
2013-04-30 22:05:00,68.0,53.2,29.74,SSE,151,0.0,1.0,59,0.00,,CLR,0.00,VWS V14.01,2013-05-01 03:05:00,
2013-04-30 22:10:00,67.7,53.3,29.74,SE,129,0.0,1.0,60,0.00,,CLR,0.00,VWS V14.01,2013-05-01 03:10:00,
2013-04-30 22:16:00,67.5,53.1,29.75,SE,129,0.0,1.0,60,0.00,,CLR,0.00,VWS V14.01,2013-05-01 03:16:00,
2013-04-30 22:21:00,67.2,52.9,29.75,ESE,123,0.0,1.0,60,0.00,,CLR,0.00,VWS V14.01,2013-05-01 03:21:00,
2013-04-30 22:26:00,67.0,53.1,29.75,ESE,123,1.0,1.0,61,0.00,,CLR,0.00,VWS V14.01,2013-05-01 03:26:00,
2013-04-30 22:30:00,66.8,53.4,29.75,ESE,110,0.0,2.0,62,0.00,,CLR,0.00,VWS V14.01,2013-05-01 03:30:00,
2013-04-30 22:31:00,66.8,53.4,29.75,ESE,110,0.0,0.0,62,0.00,,CLR,0.00,VWS V14.01,2013-05-01 03:31:00,
2013-04-30 22:36:00,66.4,53.0,29.75,ESE,112,0.0,1.0,62,0.00,,CLR,0.00,VWS V14.01,2013-05-01 03:36:00,
2013-04-30 22:41:00,66.1,53.6,29.75,ESE,117,0.0,2.0,64,0.00,,CLR,0.00,VWS V14.01,2013-05-01 03:41:00,
2013-04-30 22:46:00,65.8,53.3,29.75,ESE,116,0.0,2.0,64,0.00,,CLR,0.00,VWS V14.01,2013-05-01 03:46:00,
2013-04-30 22:51:00,65.5,53.4,29.75,ESE,122,0.0,2.0,65,0.00,,CLR,0.00,VWS V14.01,2013-05-01 03:51:00,
2013-04-30 22:56:00,65.3,53.7,29.75,ESE,113,0.0,2.0,66,0.00,,CLR,0.00,VWS V14.01,2013-05-01 03:56:00,
2013-04-30 23:00:00,65.2,53.6,29.75,ESE,113,0.0,2.0,66,0.00,,CLR,0.00,VWS V14.01,2013-05-01 04:00:00,
2013-04-30 23:01:00,65.1,53.5,29.75,ESE,113,0.0,0.0,66,0.00,,CLR,0.00,VWS V14.01,2013-05-01 04:01:00,
2013-04-30 23:02:00,65.1,53.9,29.75,ESE,113,0.0,1.0,67,0.00,,CLR,0.00,VWS V14.01,2013-05-01 04:02:00,
2013-04-30 23:07:00,64.9,53.7,29.75,SE,128,1.0,3.0,67,0.00,,CLR,0.00,VWS V14.01,2013-05-01 04:07:00,
2013-04-30 23:12:00,64.8,54.0,29.75,ESE,121,0.0,3.0,68,0.00,,CLR,0.00,VWS V14.01,2013-05-01 04:12:00,
2013-04-30 23:17:00,64.6,53.8,29.75,ESE,117,1.0,3.0,68,0.00,,CLR,0.00,VWS V14.01,2013-05-01 04:17:00,
2013-04-30 23:22:00,64.4,53.2,29.75,ESE,115,1.0,3.0,67,0.00,,CLR,0.00,VWS V14.01,2013-05-01 04:22:00,
2013-04-30 23:27:00,64.2,53.8,29.75,ESE,115,0.0,3.0,69,0.00,,CLR,0.00,VWS V14.01,2013-05-01 04:27:00,
2013-04-30 23:30:00,64.0,53.6,29.75,ESE,115,0.0,3.0,69,0.00,,CLR,0.00,VWS V14.01,2013-05-01 04:30:00,
2013-04-30 23:32:00,63.9,53.5,29.75,ESE,115,0.0,0.0,69,0.00,,CLR,0.00,VWS V14.01,2013-05-01 04:32:00,
2013-04-30 23:37:00,63.6,54.0,29.75,ESE,115,0.0,0.0,71,0.00,,CLR,0.00,VWS V14.01,2013-05-01 04:37:00,
2013-04-30 23:43:00,63.3,53.8,29.75,ESE,115,0.0,0.0,71,0.00,,CLR,0.00,VWS V14.01,2013-05-01 04:43:00,
2013-04-30 23:48:00,62.9,53.8,29.75,ESE,115,0.0,0.0,72,0.00,,CLR,0.00,VWS V14.01,2013-05-01 04:48:00,
2013-04-30 23:53:00,62.5,54.1,29.75,ESE,115,0.0,0.0,74,0.00,,CLR,0.00,VWS V14.01,2013-05-01 04:53:00,
2013-04-30 23:58:00,62.2,53.5,29.76,ESE,115,0.0,0.0,73,0.00,,CLR,0.00,VWS V14.01,2013-05-01 04:58:00,